Date String (YYYY-MM-DD hh:mm:ss) UTC,Instrument flags,Ambient pressure (hPa),Sample flow (lpm),Bypass flow (lpm),Sample temperature (°C),Ambient temperature (°C),ASC tube jacket temperature (°C),LED temperature (°C),Box temperature (°C),Sample RH (%),Span deviation,Mass concentration (μg/m³),Mass concentration (μg/m³),Mass concentration (μg/m³)
DateTimeUTC,F1_M11,P_M11,Q1_M11,Q2_M11,T1_M11,T2_M11,T3_M11,T4_M11,T5_M11,U1_M11,ZSPAN_M11,X0_M11,X2_M11,X1_M11
2022-09-23 04:00:00,,0826.7,5.01,0.00,30.4,28.6,00.0,39.2,32.1,26.6,-003.0,0016.62,0010.93,0010.44
2022-09-23 04:01:00,,0826.7,5.01,0.00,30.4,28.5,00.0,39.2,32.1,26.6,-003.0,0016.32,0010.96,0010.47
2022-09-23 04:02:00,,0826.7,4.99,0.00,30.4,28.6,00.0,39.2,32.1,26.6,-003.1,0016.28,0011.01,0010.50
2022-09-23 04:03:00,,0826.8,4.99,0.00,30.4,28.7,00.0,39.2,32.1,26.6,-003.2,0016.30,0011.03,0010.51
2022-09-23 04:04:00,,0826.8,5.01,0.00,30.4,28.7,00.0,39.2,32.1,26.6,-003.3,0016.23,0011.04,0010.55
2022-09-23 04:05:00,,0826.7,4.98,0.00,30.4,28.8,00.0,39.2,32.1,26.6,-003.2,0015.41,0011.09,0010.61
2022-09-23 04:06:00,,0826.7,5.01,0.00,30.4,28.9,00.0,39.2,32.2,26.6,-003.4,0015.17,0011.11,0010.64
2022-09-23 04:07:00,,0826.6,4.99,0.00,30.4,28.9,00.0,39.2,32.2,26.7,-003.5,0014.98,0011.13,0010.66
2022-09-23 04:08:00,,0826.6,5.00,0.00,30.4,28.9,00.0,39.2,32.2,26.7,-003.8,0014.88,0011.17,0010.73
2022-09-23 04:09:00,,0826.6,5.00,0.00,30.4,28.9,00.0,39.2,32.2,26.7,-003.6,0015.03,0011.24,0010.80
2022-09-23 04:10:00,,0826.7,4.99,0.00,30.4,28.9,00.0,39.2,32.2,26.7,-003.5,0015.11,0011.31,0010.85
2022-09-23 04:11:00,,0826.7,5.01,0.00,30.4,28.8,00.0,39.2,32.2,26.7,-003.4,0015.16,0011.35,0010.89
2022-09-23 04:12:00,,0826.7,5.00,0.00,30.4,28.7,00.0,39.2,32.2,26.7,-003.3,0015.15,0011.38,0010.91
2022-09-23 04:13:00,,0826.7,5.00,0.00,30.4,28.7,00.0,39.2,32.2,26.8,-003.2,0014.92,0011.35,0010.91
2022-09-23 04:14:00,,0826.7,5.01,0.00,30.4,28.7,00.0,39.2,32.2,26.8,-003.0,0014.95,0011.38,0010.95
2022-09-23 04:15:00,,0826.7,5.00,0.00,30.4,28.7,00.0,39.2,32.1,26.8,-003.0,0014.98,0011.44,0010.98
2022-09-23 04:16:00,,0826.7,4.99,0.00,30.4,28.7,00.0,39.2,32.1,26.8,-002.8,0015.07,0011.50,0011.05
2022-09-23 04:17:00,,0826.6,5.01,0.00,30.3,28.6,00.0,39.2,32.1,26.8,-002.8,0015.49,0011.58,0011.12
2022-09-23 04:18:00,,0826.7,5.00,0.00,30.3,28.6,00.0,39.2,32.1,26.8,-002.7,0016.31,0011.62,0011.18
2022-09-23 04:19:00,,0826.6,4.99,0.00,30.3,28.7,00.0,39.1,32.1,26.8,-002.7,0016.28,0011.61,0011.18
2022-09-23 04:20:00,,0826.7,5.01,0.00,30.3,28.7,00.0,39.1,32.1,27.6,-002.7,0016.13,0011.61,0011.19
2022-09-23 04:21:00,,0826.7,5.01,0.00,30.3,28.6,00.0,39.1,32.1,27.5,-002.8,0016.14,0011.65,0011.25
2022-09-23 04:22:00,,0826.7,5.00,0.00,30.3,28.7,00.0,39.1,32.1,27.0,-002.8,0016.13,0011.69,0011.32
2022-09-23 04:23:00,,0826.7,5.01,0.00,30.3,28.7,00.0,39.1,32.1,26.9,-003.1,0016.17,0011.74,0011.36
2022-09-23 04:24:00,,0826.7,4.99,0.00,30.3,28.8,00.0,39.1,32.1,26.9,-003.2,0016.33,0011.78,0011.38
2022-09-23 04:25:00,,0826.7,5.01,0.00,30.3,28.8,00.0,39.1,32.1,27.0,-003.2,0016.44,0011.81,0011.38
2022-09-23 04:26:00,,0826.6,5.00,0.00,30.3,28.9,00.0,39.1,32.1,27.0,-003.2,0016.41,0011.79,0011.37
2022-09-23 04:27:00,,0826.7,4.99,0.00,30.4,28.9,00.0,39.1,32.1,26.9,-003.2,0016.24,0011.77,0011.33
2022-09-23 04:28:00,,0826.7,5.01,0.00,30.4,28.9,00.0,39.1,32.2,26.9,-003.3,0015.73,0011.68,0011.26
2022-09-23 04:29:00,,0826.8,4.99,0.00,30.4,28.9,00.0,39.1,32.2,26.9,-003.3,0015.15,0011.68,0011.22
2022-09-23 04:30:00,,0826.8,5.01,0.00,30.4,29.0,00.0,39.1,32.2,26.9,-003.4,0014.93,0011.65,0011.19
2022-09-23 04:31:00,,0826.7,5.00,0.00,30.4,29.0,00.0,39.1,32.2,26.9,-003.4,0014.88,0011.62,0011.16
2022-09-23 04:32:00,,0826.7,5.00,0.00,30.4,29.0,00.0,39.1,32.2,26.9,-003.3,0014.82,0011.56,0011.10
2022-09-23 04:33:00,,0826.6,4.99,0.00,30.4,29.0,00.0,39.1,32.2,27.0,-003.3,0014.78,0011.50,0011.02
2022-09-23 04:34:00,,0826.6,5.01,0.00,30.4,29.0,00.0,39.2,32.2,26.9,-003.1,0014.75,0011.49,0011.02
2022-09-23 04:35:00,,0826.7,4.99,0.00,30.4,29.0,00.0,39.2,32.2,26.7,-003.0,0014.72,0011.54,0011.08
2022-09-23 04:36:00,,0826.7,5.01,0.00,30.4,28.9,00.0,39.2,32.2,26.6,-003.1,0014.90,0011.65,0011.18
2022-09-23 04:37:00,,0826.7,4.99,0.00,30.4,28.9,00.0,39.2,32.2,26.6,-002.9,0015.08,0011.76,0011.25
2022-09-23 04:38:00,,0826.7,5.00,0.00,30.4,28.9,00.0,39.2,32.3,26.5,-002.9,0015.51,0011.83,0011.34
2022-09-23 04:39:00,,0826.7,5.00,0.00,30.4,28.9,00.0,39.2,32.2,26.5,-002.9,0016.06,0011.95,0011.43
2022-09-23 04:40:00,,0826.7,5.00,0.00,30.4,28.9,00.0,39.2,32.2,26.6,-002.9,0016.24,0012.05,0011.53
2022-09-23 04:41:00,,0826.7,4.99,0.00,30.4,29.0,00.0,39.2,32.2,26.6,-002.8,0016.78,0012.16,0011.62
2022-09-23 04:42:00,,0826.7,5.01,0.00,30.4,29.0,00.0,39.2,32.3,26.6,-002.8,0017.23,0012.26,0011.71
2022-09-23 04:43:00,,0826.7,4.99,0.00,30.5,29.0,00.0,39.2,32.3,26.6,-002.8,0017.47,0012.40,0011.84
2022-09-23 04:44:00,,0826.7,5.01,0.00,30.5,28.9,00.0,39.2,32.3,26.6,-002.8,0017.86,0012.56,0011.97
2022-09-23 04:45:00,,0826.7,4.99,0.00,30.4,28.9,00.0,39.2,32.3,26.6,-002.9,0017.99,0012.64,0012.03
2022-09-23 04:46:00,,0826.7,5.01,0.00,30.5,29.0,00.0,39.2,32.3,26.6,-002.8,0018.02,0012.68,0012.07
2022-09-23 04:47:00,,0826.7,4.99,0.00,30.5,29.0,00.0,39.2,32.2,26.6,-002.7,0017.89,0012.66,0012.08
2022-09-23 04:48:00,,0826.6,5.01,0.00,30.4,28.9,00.0,39.2,32.2,26.6,-002.9,0017.89,0012.68,0012.11
2022-09-23 04:49:00,,0826.6,5.01,0.00,30.4,28.8,00.0,39.2,32.2,26.6,-003.1,0017.46,0012.72,0012.16
2022-09-23 04:50:00,,0826.7,5.00,0.00,30.4,28.7,00.0,39.2,32.2,26.7,-003.1,0017.06,0012.74,0012.20
2022-09-23 04:51:00,,0826.7,5.00,0.00,30.4,28.7,00.0,39.2,32.2,26.7,-003.1,0016.92,0012.72,0012.21
2022-09-23 04:52:00,,0826.7,5.01,0.00,30.4,28.8,00.0,39.2,32.2,26.6,-003.0,0016.48,0012.73,0012.23
2022-09-23 04:53:00,,0826.7,5.00,0.00,30.4,28.8,00.0,39.2,32.2,26.7,-003.0,0016.37,0012.76,0012.25
2022-09-23 04:54:00,,0826.6,4.99,0.00,30.4,28.8,00.0,39.2,32.2,26.7,-002.9,0016.48,0012.79,0012.26
2022-09-23 04:55:00,,0826.7,5.00,0.00,30.4,28.8,00.0,39.2,32.2,26.6,-002.8,0016.47,0012.79,0012.28
2022-09-23 04:56:00,,0826.7,4.99,0.00,30.4,28.8,00.0,39.2,32.2,26.6,-002.8,0016.43,0012.74,0012.26
2022-09-23 04:57:00,,0826.6,5.01,0.00,30.4,28.8,00.0,39.2,32.2,26.6,-002.7,0016.41,0012.71,0012.21
2022-09-23 04:58:00,,0826.7,4.99,0.00,30.4,28.8,00.0,39.2,32.2,26.7,-002.8,0016.39,0012.69,0012.18
2022-09-23 04:59:00,,0826.6,5.00,0.00,30.4,28.8,00.0,39.2,32.2,26.6,-002.7,0016.30,0012.64,0012.13
